Regional Weather Roundup
Issued by NWS

Home | Current Version | Previous Version | Graphics & Text | Print | Product List | Glossary On
Versions: 1 2 3 4 5 6 7 8 9 10 11 12 13 14 15 16 17 18 19 20 21 22 23 24 25 26 27 28 29 30 31 32 33 34 35 36 37 38 39 40 41 42 43 44 45 46 47 48 49 50
000
ASUS43 KLOT 060803
RWRIL

ILLINOIS REGIONAL WEATHER ROUNDUP
NATIONAL WEATHER SERVICE CHICAGO/ROMEOVILLE IL
300 AM CDT FRI MAY 06 2016

NOTE: "FAIR" INDICATES FEW OR NO CLOUDS BELOW 12,000 FEET WITH NO
SIGNIFICANT WEATHER AND/OR OBSTRUCTIONS TO VISIBILITY.

* THESE STATIONS ARE NOT UNDER NWS QUALITY CONTROL. THEY ALSO MAY NOT
  REPORT WEATHER SUCH AS PRECIPITATION OR FOG.

ILZ001-002-007-009-015-016-024-060900-
NORTHWEST ILLINOIS

CITY           SKY/WX    TMP DP  RH WIND       PRES   REMARKS
MOLINE         CLEAR     44  40  85 CALM      29.98F
STERLING*      CLEAR     46  43  87 CALM      29.99S
$$

ILZ003-004-008-010-011-017-018-060900-
NORTH CENTRAL ILLINOIS

CITY           SKY/WX    TMP DP  RH WIND       PRES   REMARKS
ROCKFORD       PTCLDY    44  40  85 S3        29.99F
FREEPORT*      CLEAR     49  39  66 SW7       29.98F
ROCHELLE*      CLEAR     42  39  90 CALM      29.99S
DE KALB*       CLEAR     46  40  79 SW6       29.98S
$$

ILZ005-006-012>014-019>023-060900-
NORTHEAST ILLINOIS

CITY           SKY/WX    TMP DP  RH WIND       PRES   REMARKS
CHICAGO-OHARE  PTCLDY    44  39  82 SW3       29.96F
CHICAGO-MIDWAY PTCLDY    48  38  68 CALM      29.97F
AURORA         CLEAR     43  40  89 CALM      29.97F
LANSING*       CLEAR     39  39  97 CALM      29.98F FOG
WAUKEGAN       CLEAR     46  38  73 SW5       29.95F
DUPAGE AIRPORT CLEAR     43  39  86 CALM      29.96F
WHEELING       CLEAR     40  36  86 SE3       29.97F
NORTHERLY ISL    N/A     50  38  63 W5          N/A
NORTHERLY ISL    N/A     50  38  63 W5          N/A
$$

LMZ740>746-060900-
SOUTHERN LAKE MICHIGAN

STATION/POSITION SKY/WX   TEMP    WIND        PRES    VSBY  WAVE
                          AIR SEA DIR/SP/G                  HT/PER
                          (F)     (DEG/KT/KT) (MB)    (MI)  (FT/S)
SOUTHERN BUOY              41 40  230/  6/  6 1015.0          1/ 5
WILMETTE HARBOR            45 44  200/  2/  4   N/A           2/ 5
HARRISON CRIB              51     210/  4/  4   N/A
BURNHAM HARBOR             50     240/  5       N/A
CALUMET HARBOR             46     220/  3/  4 1014.7F
BURNS HARBOR               45     220/  1/  4 1015.9S
MICHIGAN CITY              43     190/  3/  4   N/A
ST. JOSEPH                 45 47                N/A           2/ 5
$$

ILZ025>027-034>036-040-047-049-050-058-095>099-060900-
WEST-CENTRAL ILLINOIS

CITY           SKY/WX    TMP DP  RH WIND       PRES   REMARKS
QUINCY         CLEAR     47  40  76 S6        30.02S
MACOMB*        CLEAR     47  40  74 W5        30.03S
PITTSFIELD*    CLEAR     46  43  90 W5        30.04S
$$

ILZ028>032-037-038-041>044-048-051>054-059>061-060900-
CENTRAL ILLINOIS

CITY           SKY/WX    TMP DP  RH WIND       PRES   REMARKS
BLOOMINGTON    CLEAR     48  43  83 W6        30.01F
DECATUR        CLEAR     46  41  82 CALM      30.01S
PEORIA         CLEAR     45  39  79 CALM      30.01F
SPRINGFIELD    CLEAR     45  42  89 CALM      30.02S
TAYLORVILLE    NOT AVBL
$$

ILZ033-039-045-046-055>057-062-063-060900-
EAST-CENTRAL ILLINOIS

CITY           SKY/WX    TMP DP  RH WIND       PRES   REMARKS
CHAMPAIGN      CLEAR     44  41  89 W3        30.00S
MATTOON        CLEAR     47  41  80 W6        30.00S
$$

ILZ079-100>102-060900-
SOUTHWEST ILLINOIS

CITY           SKY/WX    TMP DP  RH WIND       PRES   REMARKS
ALTON          CLEAR     45  42  89 CALM      30.03S
BELLEVILLE     CLEAR     46  46  99 MISG      30.02S
CAHOKIA*       CLEAR     46  43  89 CALM      30.03F
SPARTA*        CLEAR     49  44  85 W6        30.04S
$$

ILZ064>066-069>071-074>076-080>082-084>086-088>090-092>094-060900-
SOUTH-CENTRAL ILLINOIS

CITY           SKY/WX    TMP DP  RH WIND       PRES   REMARKS
CARBONDALE     CLEAR     45  43  93 W3        30.02S
EFFINGHAM*     CLEAR     46  46 100 CALM      30.02F
MT. VERNON     CLEAR     45  39  81 CALM      30.02S
SALEM*         CLEAR     48  45  89 CALM      30.02S
$$

ILZ067-068-072-073-078-083-087-091-060900-
SOUTHEAST ILLINOIS

CITY           SKY/WX    TMP DP  RH WIND       PRES   REMARKS
LAWRENCEVILLE  CLEAR     47  44  90 NW5       30.00S
FLORA*         CLEAR     51  46  81 NW5       30.01S
HARRISBURG*    CLEAR     47  46  95 CALM      30.02R
ROBINSON*      CLEAR     45  42  90 CALM      30.01S
$$

ABBREVIATIONS USED IN REMARKS
   TC - TEMPERATURE IN CELSIUS
  WCI - WIND CHILL INDEX
   HX - HEAT INDEX
  VSB - VISIBILITY
$$





USA.gov is the U.S. government's official web portal to all federal, state and local government web resources and services.